Flag for Canada Weather past 2 weeks in Whistler, British Columbia, Canada

Now
55 °F

Cool.


Feels Like: 54 °F
Forecast: 31 / 47 °F
Wind: 5 mph from Southwest

Location: Squamish Airport

Current Time: Mar 31, 2015 at 5:34:18 PM

Latest Report: Mar 31, 2015 at 5:00 PM


Visibility: N/A

Pressure: 30.02 "Hg

Humidity: 45%

Dew point: 34 °F

Location of WhistlerLocation

Historic Weather in Whistler — Graph

°F

Whistler temperature yesterday

Maximum temperature yesterday: 55 °F (at 4:00 PM)
Minimum temperature yesterday: 44 °F (at 12:00 AM)
Average temperature yesterday: 48 °F

Past Weeks' High & Low Weather Summary

 TemperatureHumidityPressure
High59 °F (Mar 27, 3:00 PM)100% (Mar 19, 9:00 PM)30.28 "Hg (Mar 19, 9:00 PM)
Low34 °F (Mar 17, 3:00 AM)32% (Mar 16, 4:00 PM)29.67 "Hg (Mar 31, 1:00 AM)
Average47 °F88%30.05 "Hg
* Reported Mar 16 4:00 PM — Mar 31 4:00 PM, Whistler, Weather by CustomWeather, © 2015

Note: Actual official high and low records may vary slightly from our data, if they occured in-between our weather recording intervals... More about our weather records

Advertising

Whistler weather history for previous 24 hours

 ConditionsComfort  
Time TempWeatherWind HumidityBarometerVisibility
4:00 PM
Tue, Mar 31
54 °FCool.9 mph48%30.01 "HgN/A
3:00 PM54 °FCool.12 mph47%30.01 "HgN/A
2:00 PM54 °FCool.9 mph51%30.00 "HgN/A
1:00 PM52 °FCool.2 mph57%29.99 "HgN/A
12:00 PM49 °FCool.5 mph68%29.97 "HgN/A
11:00 AM51 °FCool.8 mph65%29.95 "HgN/A
10:00 AM48 °FCool.1 mph83%29.93 "HgN/A
9:00 AM44 °FQuite cool.1 mph92%29.91 "HgN/A
8:00 AM42 °FQuite cool.1 mph99%29.88 "HgN/A
7:00 AM44 °FQuite cool.1 mph98%29.85 "HgN/A
6:00 AM44 °FQuite cool.3 mph94%29.81 "HgN/A
5:00 AM46 °FCool.3 mph96%29.79 "HgN/A
4:00 AM46 °FCool.5 mph91%29.75 "HgN/A
3:00 AM47 °FCool.9 mph92%29.72 "HgN/A
2:00 AM49 °FCool.3 mph99%29.67 "HgN/A
1:00 AM48 °FCool.1 mph99%29.67 "HgN/A
12:00 AM49 °FCool.2 mph99%29.71 "HgN/A
11:00 PM
Mon, Mar 30
49 °FCool.1 mph99%29.73 "HgN/A
10:00 PM49 °FCool.1 mph99%29.76 "HgN/A
9:00 PM49 °FCool.1 mph99%29.78 "HgN/A
8:00 PM50 °FCool.1 mph97%29.79 "HgN/A
7:00 PM52 °FCool.1 mph95%29.80 "HgN/A
6:00 PM52 °FCool.2 mph92%29.83 "HgN/A
5:00 PM52 °FCool.2 mph90%29.85 "HgN/A
Weather by CustomWeather, © 2015

See weather overviewHow to use our weather pages